Tracking 28794 objects as of 19-Apr-2024
HD Live streaming from Space Station
objects crossing your sky now

COSMOS 778

Track COSMOS 778 now!
10-day predictions
COSMOS 778 is classified as:


NORAD ID: 8419
Int'l Code: 1975-103A
Perigee: 974.7 km
Apogee: 1,004.9 km
Inclination: 83.0 °
Period: 104.7 minutes
Semi major axis: 7360 km
RCS: 2.3884 m2 (large)
Launch date: November 4, 1975
Source: Commonwealth of Independent States (former USSR) (CIS)
Launch site: PLESETSK MISSILE AND SPACE COMPLEX (PKMTR)
Your satellite tracking list
Your tracking list is empty




NASA's NSSDC Master Catalog

Two Line Element Set (TLE):
1 08419U 75103A   24110.64861122  .00000142  00000-0  13309-3 0  9992
2 08419  82.9742 155.3411 0020481 254.9754 223.3760 13.74728101430247
Source of the keplerian elements: AFSPC